Regional Weather Roundup
Issued by NWS

Home | Current Version | Previous Version | Text Only | Print | Product List | Glossary Off
Versions: 1 2 3 4 5 6 7 8 9 10 11 12 13 14 15 16 17 18 19 20 21 22 23 24 25 26 27 28 29 30 31 32 33 34 35 36 37 38 39 40 41 42 43 44 45 46 47 48 49 50

715
ASUS43 KLSX 241910
RWRMO

WEATHER SUMMARY FOR MISSOURI
NATIONAL WEATHER SERVICE SPRINGFIELD MO
200 PM CDT TUE MAY 24 2016

NOTE: "FAIR" INDICATES FEW OR NO CLOUDS BELOW 12,000 FEET WITH NO
       SIGNIFICANT WEATHER AND/OR OBSTRUCTIONS TO VISIBILITY.
       CURRENT SKY AND/OR WEATHER CONDITIONS ARE NOT AVAILABLE FOR
       CHILLICOTHE AND FARMINGTON.

MOZ001>031-035>038-043-044-053-054-242000-
...NORTHERN AND WESTERN MISSOURI...

CITY           SKY/WX    TMP DP  RH WIND       PRES   REMARKS
KANSAS CTY INT CLOUDY    72  61  68 SE24G32   29.86F
KANSAS C DTWN  CLOUDY    75  62  64 SE12G23   29.90F
LEE`S SUMMIT   CLOUDY    73  66  78 SE15      29.95F
ST JOSEPH      CLOUDY    74  63  68 SE15      29.87R
CHILLICOTHE      N/A     75  64  68 S8G17     29.91F
KIRKSVILLE     CLOUDY    76  67  73 S8        29.95F

$$
MOZ066>068-077>081-088>096-101>105-242000-
...SOUTHWEST MISSOURI...

CITY           SKY/WX    TMP DP  RH WIND       PRES   REMARKS
SPRINGFIELD    CLOUDY    66  61  84 NE10      30.03F
JOPLIN         CLOUDY    72  68  87 E12       29.98F
BRANSON        RAIN      72  68  88 NW17G29   30.05R

$$
MOZ032>034-039>042-045>050-055>058-069>072-242000-
...CENTRAL MISSOURI...

CITY           SKY/WX    TMP DP  RH WIND       PRES   REMARKS
COLUMBIA       CLOUDY    69  66  90 S9        30.01R
JEFFERSON CITY CLOUDY    68  65  90 S14       30.03R
ROLLA          LGT RAIN  66  64  93 SE5       30.04R FOG
SEDALIA        CLOUDY    68  65  90 S10       30.00F
WHITEMAN AFB   CLOUDY    68  68 100 S9        29.97F
WARRENSBURG    CLOUDY    68  63  83 SE6       29.99R

$$
MOZ051-052-059>065-242000-
...EAST CENTRAL MISSOURI...

CITY           SKY/WX    TMP DP  RH WIND       PRES   REMARKS
ST LOUIS INTL  PTSUNNY   86  62  44 SW12      29.99S
SPIRIT OF STL  CLOUDY    81  66  60 SW10      29.98R
ST CHARLES     MOSUNNY   83  63  50 S15       29.96F

$$
MOZ072>076-082>087-097>100-106>115-242000-
...SOUTH CENTRAL AND SOUTHEAST MISSOURI...

CITY           SKY/WX    TMP DP  RH WIND       PRES   REMARKS
CAPE GIRARDEAU MOSUNNY   82  63  52 SW16G24   30.04R
FARMINGTON     CLOUDY    77  66  68 SW12      30.04R
POPLAR BLUFF   CLOUDY    73  62  68 SW5       30.06R
WEST PLAINS    CLOUDY    69  66  90 E8        30.02F FOG

$$




USA.gov is the U.S. government's official web portal to all federal, state and local government web resources and services.